Weather History for KVWU - March, 2014

Change the Weather History Date:

Friday, March 14, 2014

  Actual Average (KBDE) Record (KBDE)
Temperature  
Mean Temperature 20 °F -  
Max Temperature 33 °F 33 °F 56 °F (1981)
Min Temperature 8 °F 8 °F -25 °F (1956)
Degree Days  
Heating Degree Days 44    
Moisture  
Dew Point 20 °F    
Average Humidity 84    
Maximum Humidity 100    
Minimum Humidity 63    
Precipitation  
Precipitation 0.00 in - - ()
Sea Level Pressure  
Sea Level Pressure 29.66 in    
Wind  
Wind Speed 11 mph (West)    
Max Wind Speed 18 mph    
Max Gust Speed 24 mph    
Visibility 10 miles    
Events      
Averages and records for this station are not official NWS values.
T = Trace of Precipitation, MM = Missing Value Source: NWS Daily Summary

Daily Weather History Graph

Daily Weather History Graph

Search for Another Location

Airport or City:

Trip Planner

Search our weather history database for the weather conditions in past years. The results will help you decide how hot, cold, wet, or windy it might be!

Date:

Astronomy

Mar. 14, 2014 Rise Set
Actual Time 7:33 AM CDT 7:22 PM CDT
Civil Twilight 7:02 AM CDT 7:53 PM CDT
Nautical Twilight 6:26 AM CDT 8:29 PM CDT
Astronomical Twilight 5:49 AM CDT 9:06 PM CDT
Moon 5:40 PM CDT (3/14) 6:20 AM CDT (3/14)
Length of Visible Light 12h 50m
Length of Day
11h 48m
Waxing Gibbous, 96% of the Moon is Illuminated
Mar 14
Waxing Gibbous
Mar 16
Full
Mar 23
Last Quarter
Mar 30
New
Apr 7
First Quarter

Hourly Weather History & Observations

Time (CDT) Temp. Windchill Dew Point Humidity Pressure Visibility Wind Dir Wind Speed Gust Speed Precip Events Conditions
12:13 AM 33.8 °F 25.3 °F 30.2 °F 87% 29.43 in 10.0 mi SW 11.5 mph - N/A   Clear
12:32 AM 32.0 °F 24.2 °F 30.2 °F 93% 29.43 in 10.0 mi SW 9.2 mph - N/A   Clear
12:52 AM 32.0 °F 23.6 °F 30.2 °F 93% 29.43 in 10.0 mi SW 10.4 mph - N/A   Clear
1:13 AM 32.0 °F 23.6 °F 30.2 °F 93% 29.43 in 10.0 mi SW 10.4 mph - N/A   Clear
1:32 AM 30.2 °F 21.3 °F 30.2 °F 100% 29.44 in 10.0 mi SW 10.4 mph - N/A   Clear
1:52 AM 30.2 °F 21.3 °F 30.2 °F 100% 29.44 in 10.0 mi SW 10.4 mph - N/A   Clear
2:13 AM 30.2 °F 21.3 °F 28.4 °F 93% 29.44 in 10.0 mi SW 10.4 mph - N/A   Scattered Clouds
2:32 AM 30.2 °F 21.9 °F 28.4 °F 93% 29.44 in 10.0 mi SW 9.2 mph - N/A   Mostly Cloudy
2:52 AM 30.2 °F 21.3 °F 28.4 °F 93% 29.44 in 10.0 mi SW 10.4 mph - N/A   Scattered Clouds
3:13 AM 30.2 °F 20.8 °F 28.4 °F 93% 29.44 in 10.0 mi SW 11.5 mph - N/A   Clear
3:32 AM 30.2 °F 20.2 °F 28.4 °F 93% 29.44 in 10.0 mi SW 12.7 mph - N/A   Clear
3:52 AM 30.2 °F 19.8 °F 28.4 °F 93% 29.44 in 10.0 mi SW 13.8 mph - N/A   Clear
4:13 AM 28.4 °F 18.5 °F 26.6 °F 93% 29.43 in 10.0 mi SW 11.5 mph - N/A   Scattered Clouds
4:32 AM 28.4 °F 19.1 °F 28.4 °F 100% 29.44 in 10.0 mi SW 10.4 mph - N/A   Scattered Clouds
4:52 AM 30.2 °F 21.3 °F 28.4 °F 93% 29.44 in 10.0 mi WSW 10.4 mph - N/A   Mostly Cloudy
5:13 AM 30.2 °F 22.6 °F 28.4 °F 93% 29.45 in 10.0 mi WSW 8.1 mph - N/A   Overcast
5:32 AM 30.2 °F 21.3 °F 30.2 °F 100% 29.45 in 10.0 mi West 10.4 mph 16.1 mph N/A   Overcast
5:52 AM 32.0 °F 24.8 °F 30.2 °F 93% 29.45 in 10.0 mi West 8.1 mph - N/A   Overcast
6:12 AM 32.0 °F 23.6 °F 30.2 °F 93% 29.46 in 10.0 mi West 10.4 mph - N/A   Overcast
6:32 AM 32.0 °F 22.1 °F 30.2 °F 93% 29.47 in 10.0 mi WNW 13.8 mph 18.4 mph N/A   Overcast
6:53 AM 32.0 °F 23.0 °F 28.4 °F 87% 29.49 in 10.0 mi WNW 11.5 mph 18.4 mph N/A   Overcast
7:12 AM 32.0 °F 23.6 °F 28.4 °F 87% 29.50 in 10.0 mi WNW 10.4 mph - N/A   Overcast
7:32 AM 32.0 °F 23.0 °F 28.4 °F 87% 29.51 in 10.0 mi WNW 11.5 mph 19.6 mph N/A   Overcast
7:53 AM 30.2 °F 19.8 °F 28.4 °F 93% 29.53 in 10.0 mi West 13.8 mph 18.4 mph N/A   Overcast
8:12 AM 30.2 °F 20.8 °F 28.4 °F 93% 29.53 in 10.0 mi West 11.5 mph 17.3 mph N/A   Overcast
8:32 AM 30.2 °F 18.9 °F 26.6 °F 86% 29.55 in 10.0 mi West 16.1 mph 21.9 mph N/A   Overcast
8:53 AM 28.4 °F 17.0 °F 26.6 °F 93% 29.56 in 10.0 mi West 15.0 mph 20.7 mph N/A   Overcast
9:12 AM 26.6 °F 14.7 °F 24.8 °F 93% 29.57 in 10.0 mi West 15.0 mph - N/A   Overcast
9:32 AM 26.6 °F 15.7 °F 21.2 °F 80% 29.58 in 10.0 mi WNW 12.7 mph 20.7 mph N/A   Overcast
9:53 AM 24.8 °F 13.4 °F 21.2 °F 86% 29.59 in 10.0 mi WNW 12.7 mph 19.6 mph N/A   Overcast
10:12 AM 24.8 °F 11.5 °F 19.4 °F 80% 29.60 in 10.0 mi West 17.3 mph 23.0 mph N/A   Overcast
10:32 AM 21.2 °F 7.8 °F 19.4 °F 93% 29.62 in 10.0 mi WNW 15.0 mph 21.9 mph N/A   Overcast
10:53 AM 21.2 °F 7.8 °F 19.4 °F 93% 29.63 in 10.0 mi WNW 15.0 mph 21.9 mph N/A   Overcast
11:12 AM 21.2 °F 8.9 °F 19.4 °F 93% 29.65 in 7.0 mi WNW 12.7 mph 20.7 mph N/A   Overcast
11:32 AM 21.2 °F 7.3 °F 19.4 °F 93% 29.65 in 5.0 mi WNW 16.1 mph 20.7 mph N/A   Overcast
11:53 AM 21.2 °F 8.3 °F 19.4 °F 93% 29.66 in 7.0 mi WNW 13.8 mph 19.6 mph N/A   Overcast
12:12 PM 21.2 °F 6.4 °F 17.6 °F 86% 29.68 in 10.0 mi WNW 18.4 mph 24.2 mph N/A   Overcast
12:32 PM 21.2 °F 9.5 °F 17.6 °F 86% 29.68 in 10.0 mi WNW 11.5 mph - N/A   Overcast
12:53 PM 21.2 °F 8.9 °F 17.6 °F 86% 29.70 in 10.0 mi WNW 12.7 mph 17.3 mph N/A   Overcast
1:12 PM 21.2 °F 9.5 °F 17.6 °F 86% 29.71 in 10.0 mi NW 11.5 mph - N/A   Overcast
1:32 PM 23.0 °F 11.1 °F 17.6 °F 80% 29.71 in 10.0 mi WNW 12.7 mph 20.7 mph N/A   Overcast
1:53 PM 23.0 °F 10.6 °F 17.6 °F 80% 29.71 in 10.0 mi WNW 13.8 mph 19.6 mph N/A   Overcast
2:12 PM 23.0 °F 13.1 °F 17.6 °F 80% 29.72 in 10.0 mi NW 9.2 mph - N/A   Overcast
2:32 PM 24.8 °F 12.9 °F 17.6 °F 74% 29.72 in 10.0 mi NW 13.8 mph 20.7 mph N/A   Overcast
2:53 PM 24.8 °F 13.4 °F 15.8 °F 69% 29.73 in 10.0 mi WNW 12.7 mph 17.3 mph N/A   Overcast
3:12 PM 24.8 °F 12.9 °F 15.8 °F 69% 29.73 in 10.0 mi WNW 13.8 mph - N/A   Overcast
3:32 PM 24.8 °F 14.0 °F 15.8 °F 69% 29.75 in 10.0 mi NW 11.5 mph - N/A   Overcast
3:53 PM 24.8 °F 14.0 °F 15.8 °F 69% 29.75 in 10.0 mi NW 11.5 mph - N/A   Overcast
4:12 PM 24.8 °F 15.3 °F 15.8 °F 69% 29.77 in 10.0 mi NW 9.2 mph 17.3 mph N/A   Overcast
4:32 PM 24.8 °F 14.0 °F 15.8 °F 69% 29.78 in 10.0 mi NW 11.5 mph 18.4 mph N/A   Overcast
4:53 PM 23.0 °F 11.7 °F 14.0 °F 68% 29.79 in 10.0 mi NW 11.5 mph 17.3 mph N/A   Overcast
5:12 PM 23.0 °F 12.4 °F 15.8 °F 74% 29.80 in 10.0 mi WNW 10.4 mph 18.4 mph N/A   Overcast
5:32 PM 23.0 °F 13.1 °F 14.0 °F 68% - 10.0 mi NW 9.2 mph - N/A   Overcast
5:53 PM 23.0 °F - 14.0 °F 68% 29.82 in 10.0 mi Calm Calm 16.1 mph N/A   Overcast
6:12 PM 23.0 °F 12.4 °F 14.0 °F 68% 29.83 in 10.0 mi NW 10.4 mph - N/A   Overcast
6:32 PM 23.0 °F 13.1 °F 12.2 °F 63% 29.84 in 10.0 mi NW 9.2 mph - N/A   Overcast
6:53 PM 21.2 °F 11.7 °F 14.0 °F 74% 29.86 in 10.0 mi WNW 8.1 mph - N/A   Overcast
7:12 PM 21.2 °F 10.9 °F 12.2 °F 68% 29.87 in 10.0 mi NW 9.2 mph - N/A   Mostly Cloudy
7:32 PM 21.2 °F 11.7 °F 12.2 °F 68% 29.88 in 10.0 mi WNW 8.1 mph - N/A   Scattered Clouds
7:52 PM 19.4 °F 10.4 °F 10.4 °F 68% 29.89 in 10.0 mi West 6.9 mph - N/A   Clear
8:12 PM 17.6 °F 9.3 °F 10.4 °F 73% 29.91 in 10.0 mi West 5.8 mph - N/A   Clear
8:32 PM 15.8 °F 7.2 °F 10.4 °F 79% 29.92 in 10.0 mi West 5.8 mph - N/A   Clear
8:52 PM 14.0 °F 3.9 °F 8.6 °F 79% 29.93 in 10.0 mi West 6.9 mph - N/A   Clear
9:12 PM 14.0 °F 3.9 °F 8.6 °F 79% 29.93 in 10.0 mi WNW 6.9 mph - N/A   Clear
9:33 PM 12.2 °F 0.7 °F 8.6 °F 85% 29.94 in 10.0 mi WNW 8.1 mph - N/A   Clear
9:52 PM 12.2 °F 2.9 °F 8.6 °F 85% 29.95 in 10.0 mi West 5.8 mph - N/A   Clear
10:12 PM 12.2 °F 6.1 °F 6.8 °F 79% 29.96 in 10.0 mi WNW 3.5 mph - N/A   Clear
10:33 PM 10.4 °F 4.0 °F 6.8 °F 85% 29.96 in 10.0 mi WNW 3.5 mph - N/A   Clear
10:52 PM 10.4 °F - 6.8 °F 85% 29.97 in 10.0 mi Calm Calm - N/A   Clear
11:12 PM 8.6 °F 2.0 °F 5.0 °F 85% 29.97 in 10.0 mi WSW 3.5 mph - N/A   Clear
11:33 PM 8.6 °F 0.1 °F 5.0 °F 85% 29.97 in 10.0 mi West 4.6 mph - N/A   Clear
11:52 PM 8.6 °F 2.0 °F 3.2 °F 79% 29.97 in 10.0 mi West 3.5 mph - N/A   Clear